カタログに戻る

STARLINK-37076

運用中通信VLEO
NORAD 68173·PAYLOAD·🇺🇸 United States

打ち上げ Mar 14, 2026 から Vandenberg Space Force Base

Loading…

次のパス (今後24時間)

TLE

最新Source: CelesTrak SupGP

元期: Sep 15, 2026, 03:42 UTC

1 68173C 26050G   26258.15465278 -.00012400  00000+0 -36636-3 0  2582
2 68173  53.1579 103.0083 0001195  82.3567 260.7094 15.34395819    16

AllMySatでSTARLINK-37076をリアルタイム追跡

Download on the App Store